Greenwich

United Kingdom     51˚28′40″N   0˚00′57″E
temp.,
°C
wind,
m/s
gust,
m/s
humid.,
%
clouds,
%
prec.,
mm/h
press.,
hPa
HPBL,
m
2 december, wed
wed200:00+5˚n258171 0.0 1025276
03:00+4˚nw248388 0.0 1023197
06:00+5˚wnw138194 0.0 1021149
09:00+5˚wsw2377100 0.0 1020204
12:00+6˚wsw2562100 0.0 1017307
15:00+7˚wsw3670100 0.0 1014346
18:00+7˚w3788100 0.2 1013475
21:00+6˚wnw377883 0.0 1011531
3 december, thu
thu300:00+5˚w377283 0.0 1008373
03:00+5˚sw3772100 0.0 1004466
06:00+5˚ssw3876100 0.1 1000800
09:00+6˚s4988100 2.1 995742
12:00+6˚sw2786100 7.1 989616
15:00+6˚sse3584100 0.9 983413
18:00+5˚ne1290100 4.1 980185
21:00+6˚sw2486100 1.0 978393
4 december, fri
fri400:00+5˚nw248496 1.1 978406
03:00+5˚n3584100 0.1 977500
06:00+4˚nnw4882100 0.2 977577
09:00+4˚nw4883100 0.0 977691
12:00+4˚wnw4775100 0.1 978701
15:00+4˚w4779100 0.0 980725
18:00+4˚wsw3675100 0.1 983574
21:00+3˚ssw267668 0.0 985342
5 december, sat
sat500:00+2˚s257433 0.0 986204
03:00+2˚se23760 0.0 987101
06:00+2˚e24750 0.0 989146
09:00+3˚e377768 0.0 991251
12:00+6˚se367066 0.0 993590
15:00+6˚ese256615 0.0 993644
18:00+4˚ese27808 0.1 995375
21:00+4˚ene2576100 0.0 995215
6 december, sun
sun600:00+3˚ne3679100 0.0 995283
03:00+4˚ne387299 0.0 995400
06:00+4˚ne496999 0.0 995471
09:00+4˚nne4969100 0.0 996493
12:00+5˚nne4964100 0.0 996716
15:00+5˚nne4867100 0.0 996749
18:00+4˚n3775100 0.1 997349
21:00+3˚n3778100 0.6 998368